Location: Taylor Dark Sky Site
(39.1017°N, 87.9564°W)
Time: 09:23:27
(UTC-06:00)

Amateur Radio Satellites - All Passes

Search period start: 09 December 2016 08:53
Search period end: 10 December 2016 08:53
Location: Taylor Dark Sky Site, 39.1017°N, 87.9564°W

Satellite Date Start Highest point End Downlink Frequencies (MHz)
Time Altitude Azimuth
ZACube-1 09 Dec 08:56:21 09:00:35 89° 97° (E) 09:04:43 437.345
CUSAT 1 09 Dec 08:57:47 09:00:46 56° 280° (W) 09:03:23 437.405
CANX-2 09 Dec 08:58:03 08:59:43 12° 296° (WNW) 09:01:22 2200.000
FUNcube-1 09 Dec 09:01:57 09:06:09 85° 283° (WNW) 09:10:16 145.935
Cosmos 2491 09 Dec 09:09:00 09:11:17 11° 303° (WNW) 09:13:35 435.465 / 435.565
DELFI C3 09 Dec 09:10:31 09:14:15 37° 98° (E) 09:17:59 145.870
PCSat 09 Dec 09:10:48 09:14:08 17° 104° (ESE) 09:17:30 145.827
SEEDS 09 Dec 09:15:39 09:17:33 13° 295° (WNW) 09:19:27 437.485
COMPASS 1 09 Dec 09:18:23 09:21:07 17° 293° (WNW) 09:23:50 437.405
TIGRISAT 09 Dec 09:20:31 09:25:13 89° 83° (E) 09:29:52 435.000
GONETS M04 09 Dec 09:20:47 09:24:38 13° 60° (ENE) 09:28:29
ANTELSAT 09 Dec 09:22:58 09:27:40 82° 259° (W) 09:32:19 437.575/2403.000
CUBEBUG 2 09 Dec 09:26:11 09:29:01 17° 294° (WNW) 09:31:47 437.445
Oscar 11 09 Dec 09:27:58 09:32:05 44° 287° (WNW) 09:36:10 145.826/435.025
POPSAT HIP 1 09 Dec 09:29:16 09:30:53 12° 63° (ENE) 09:32:29 437.405
JAS-2 09 Dec 09:34:07 09:39:31 32° 69° (ENE) 09:44:26 435.910
RS-15 09 Dec 09:38:14 09:48:06 28° 332° (NNW) 09:58:14 29.354- 29.394
HO-68 09 Dec 09:43:56 09:48:25 18° 304° (NW) 09:52:53 435.675
HUMSAT D 09 Dec 09:52:10 09:56:12 60° 101° (E) 10:00:13 437.325/437.525
AO-85 09 Dec 09:57:41 10:01:39 90° 59° (ENE) 10:05:31 145.980
UWE-3 09 Dec 10:02:19 10:03:32 11° 297° (WNW) 10:04:45 435.000/436.395/437.385
Cosmos 2499 09 Dec 10:16:46 10:24:22 35° 71° (ENE) 10:31:26 435.465 / 435.565
NANOSAT C BR1 09 Dec 10:18:30 10:22:28 39° 72° (ENE) 10:26:27 145.865
DANDE 09 Dec 10:18:51 10:22:32 28° 280° (W) 10:25:31 436.750
QB50P2 09 Dec 10:27:44 10:31:57 59° 74° (ENE) 10:36:10 145.880/145.840
POLYITAN 1 09 Dec 10:28:11 10:32:22 56° 74° (ENE) 10:36:35 437.675
ESTCUBE 1 09 Dec 10:29:29 10:32:56 21° 94° (E) 10:36:21 437.505/2401.250
UNISAT 6 09 Dec 10:30:22 10:33:19 16° 268° (W) 10:36:14 437.425
JUGNU 09 Dec 10:35:27 10:36:57 11° 176° (S) 10:38:27 437.505
CUBEBUG 1 09 Dec 10:37:22 10:39:58 15° 92° (E) 10:42:32 437.445
DUCHIFAT 1 09 Dec 10:38:30 10:42:41 62° 75° (ENE) 10:46:54 145.980
QB50P1 09 Dec 10:39:54 10:44:11 76° 75° (ENE) 10:48:27 145.935-145.965
DELFI C3 09 Dec 10:46:21 10:48:44 16° 293° (WNW) 10:51:09 145.870
PCSat 09 Dec 10:51:37 10:56:58 62° 301° (WNW) 11:02:22 145.827
VELOX 1 09 Dec 10:57:33 11:00:24 17° 93° (E) 11:03:15 145.980
POPSAT HIP 1 09 Dec 11:01:53 11:06:06 61° 259° (W) 11:10:22 437.405
SPROUT 09 Dec 11:04:03 11:05:46 12° 91° (E) 11:07:29 437.525
GONETS M04 09 Dec 11:14:25 11:23:09 72° 81° (E) 11:31:53
JAS-2 09 Dec 11:18:41 11:24:30 36° 261° (W) 11:29:46 435.910
BUGSAT 1 09 Dec 11:20:11 11:24:23 69° 75° (ENE) 11:28:38 437.445
HUMSAT D 09 Dec 11:30:23 11:31:16 11° 296° (WNW) 11:32:10 437.325/437.525
NANOSAT C BR1 09 Dec 11:55:37 11:58:19 16° 267° (W) 12:01:03 145.865
AISAT 09 Dec 11:55:57 12:00:27 80° 103° (ESE) 12:04:54 437.250
RS-15 09 Dec 11:58:16 12:06:41 20° 8° (N) 12:15:06 29.354- 29.394
ESTCUBE 1 09 Dec 12:05:42 12:09:46 34° 290° (WNW) 12:13:51 437.505/2401.250
QB50P2 09 Dec 12:06:54 12:08:05 11° 269° (W) 12:09:16 145.880/145.840
POLYITAN 1 09 Dec 12:06:57 12:08:29 12° 269° (W) 12:10:00 437.675
Cosmos 2499 09 Dec 12:09:42 12:17:40 47° 272° (W) 12:25:03 435.465 / 435.565
BEESAT 3 09 Dec 12:09:47 12:13:21 31° 52° (NE) 12:16:55 437.485
CUBEBUG 1 09 Dec 12:12:12 12:16:27 46° 287° (WNW) 12:20:40 437.445
TISAT 1 09 Dec 12:13:16 12:14:13 11° 91° (E) 12:15:10 437.305
DUCHIFAT 1 09 Dec 12:18:08 12:18:44 10° 270° (W) 12:19:20 145.980
50 SAT 09 Dec 12:20:37 12:24:06 54° 285° (WNW) 12:27:35 437.505
Oscar 19 09 Dec 12:24:24 12:29:30 76° 75° (ENE) 12:34:39 437.125/150
VELOX 1 09 Dec 12:32:49 12:37:02 42° 288° (WNW) 12:41:14 145.980
UKube-1 09 Dec 12:32:57 12:37:18 74° 102° (ESE) 12:41:36 .
DX 1 09 Dec 12:33:18 12:37:43 80° 284° (WNW) 12:42:06 434.975-435.025
SPROUT 09 Dec 12:37:49 12:42:00 53° 286° (WNW) 12:46:08 437.525
PCSat 09 Dec 12:40:04 12:41:29 11° 321° (NW) 12:42:55 145.827
AO-7 09 Dec 12:41:33 12:46:55 19° 52° (NE) 12:52:18 29.400- 29.500
BEESAT 2 09 Dec 12:46:57 12:50:40 35° 53° (NE) 12:54:23 435.950
Gurwin Techsat 1B 09 Dec 12:50:33 12:55:49 68° 74° (ENE) 13:01:07 435.225
ITAMSAT 1 09 Dec 13:02:40 13:06:26 21° 64° (ENE) 13:10:12 435.822/435.867
GONETS M04 09 Dec 13:12:49 13:19:01 22° 280° (W) 13:25:15
TISAT 1 09 Dec 13:46:03 13:50:13 58° 286° (WNW) 13:54:19 437.305
BEESAT 3 09 Dec 13:47:44 13:50:48 21° 248° (WSW) 13:53:50 437.485
SWISSCUBE 09 Dec 13:52:50 13:57:05 31° 97° (E) 14:01:18 437.505
BEESAT 09 Dec 13:56:29 14:00:42 31° 97° (E) 14:04:52 436.000
Oscar 19 09 Dec 14:07:42 14:09:21 11° 270° (W) 14:11:01 437.125/150
AUBIESAT-1 09 Dec 14:08:12 14:12:02 27° 100° (E) 14:15:41 437.475
SRMSAT 09 Dec 14:09:43 14:11:08 11° 183° (S) 14:12:34 437.500
UKube-1 09 Dec 14:12:13 14:12:41 10° 298° (WNW) 14:13:09 .
RS-15 09 Dec 14:12:41 14:24:09 40° 41° (NE) 14:35:17 29.354- 29.394
M-CUBED/EXP-1 PRIME 09 Dec 14:23:20 14:27:51 50° 104° (ESE) 14:32:06 437.505
BEESAT 2 09 Dec 14:25:19 14:28:13 19° 249° (WSW) 14:31:06 435.950
ITUPSAT 1 09 Dec 14:26:23 14:31:07 63° 102° (ESE) 14:35:50 437.325
MOZHAYETS 4 09 Dec 14:29:23 14:32:14 16° 92° (E) 14:35:04
AO-7 09 Dec 14:30:12 14:38:30 85° 69° (ENE) 14:46:53 29.400- 29.500
Gurwin Techsat 1B 09 Dec 14:33:34 14:36:13 14° 269° (W) 14:38:53 435.225
ITAMSAT 1 09 Dec 14:40:29 14:45:31 48° 260° (W) 14:50:34 435.822/435.867
O/OREOS (USA 219) 09 Dec 14:40:51 14:45:16 51° 107° (ESE) 14:49:40 437.305
ISS 09 Dec 14:43:00 14:46:16 84° 320° (NW) 14:49:34 145.825
Cosmos 2491 09 Dec 15:23:19 15:25:17 11° 57° (ENE) 15:27:15 435.465 / 435.565
SWISSCUBE 09 Dec 15:30:50 15:34:43 26° 293° (WNW) 15:38:36 437.505
BEESAT 09 Dec 15:34:25 15:38:20 26° 293° (WNW) 15:42:16 436.000
AUBIESAT-1 09 Dec 15:42:28 15:46:21 28° 296° (WNW) 15:50:03 437.475
BRITE-PL 09 Dec 15:44:19 15:48:18 36° 70° (ENE) 15:52:35 437.365/2234.400
AIST 2 09 Dec 15:47:59 15:52:14 73° 58° (ENE) 15:56:26 435.215
M-CUBED/EXP-1 PRIME 09 Dec 15:58:48 16:01:50 18° 301° (WNW) 16:04:47 437.505
STARS 09 Dec 16:02:07 16:05:58 29° 97° (E) 16:09:46 437.465
MOZHAYETS 4 09 Dec 16:05:16 16:09:36 45° 288° (WNW) 16:13:56
ITUPSAT 1 09 Dec 16:05:59 16:08:25 14° 297° (WNW) 16:10:49 437.325
KKS-1 09 Dec 16:06:41 16:11:11 75° 102° (ESE) 16:15:38 437.445
HORYU 2 09 Dec 16:17:23 16:21:50 68° 75° (ENE) 16:26:18 437.375
CUBESAT XI-V 09 Dec 16:18:29 16:22:46 34° 97° (E) 16:27:01 437.345
ISS 09 Dec 16:21:02 16:23:12 16° 340° (NNW) 16:25:22 145.825
O/OREOS (USA 219) 09 Dec 16:22:06 16:24:58 16° 304° (NW) 16:27:49 437.305
RS-15 09 Dec 16:25:22 16:37:35 70° 245° (WSW) 16:49:21 29.354- 29.394
AO-7 09 Dec 16:26:46 16:32:08 18° 268° (W) 16:37:32 29.400- 29.500
DOVE 4 09 Dec 16:28:54 16:32:28 20° 65° (ENE) 16:36:11 437.250
GOMX 1 09 Dec 16:37:21 16:41:52 55° 73° (ENE) 16:46:46 467.674
LilacSat-2 09 Dec 16:40:28 16:43:47 28° 71° (ENE) 16:47:05 437.200
HO-68 09 Dec 16:40:34 16:42:02 11° 50° (NE) 16:43:31 435.675
CUTE-I 09 Dec 16:42:55 16:47:50 37° 69° (ENE) 16:52:44 437.470
NOAA 15 09 Dec 16:52:32 16:57:34 50° 71° (ENE) 17:02:38 137.62
Cubesat XI-IV 09 Dec 17:09:42 17:15:01 66° 73° (ENE) 17:20:20 437.490
Cosmos 2491 09 Dec 17:15:28 17:24:07 63° 79° (E) 17:32:43 435.465 / 435.565
CINEMA 3 09 Dec 17:18:51 17:22:01 17° 64° (ENE) 17:25:12 145.822/145.860
BRITE-PL 09 Dec 17:23:49 17:26:58 19° 268° (W) 17:30:17 437.365/2234.400
NOAA 18 09 Dec 17:25:09 17:30:35 60° 72° (ENE) 17:36:04 137.9125
STARS 09 Dec 17:38:37 17:42:10 24° 292° (WNW) 17:45:41 437.465
YUBILEINY 09 Dec 17:40:01 17:47:51 39° 86° (E) 17:55:44 435.215
KKS-1 09 Dec 17:46:05 17:47:05 11° 299° (WNW) 17:48:06 437.445
CUTE 1.7 + AOD 2 09 Dec 17:53:57 17:56:53 19° 67° (ENE) 17:59:49 437.475
CUBESAT XI-V 09 Dec 17:56:17 17:59:55 23° 292° (WNW) 18:03:34 437.345
HORYU 2 09 Dec 17:58:06 17:58:48 10° 270° (W) 17:59:30 437.375
PCSat 09 Dec 17:58:56 18:01:43 14° 42° (NE) 18:04:29 145.827
DOVE 4 09 Dec 18:05:05 18:09:44 45° 262° (W) 18:14:40 437.250
Cosmos 2504 09 Dec 18:11:42 18:18:45 31° 83° (E) 18:26:05 435.465 / 435.565
CANX-2 09 Dec 18:11:49 18:15:37 34° 72° (ENE) 18:19:26 2200.000
LilacSat-2 09 Dec 18:15:22 18:18:04 18° 266° (W) 18:20:46 437.200
GOMX 1 09 Dec 18:17:49 18:20:24 15° 271° (W) 18:23:04 467.674
STRAND 1 09 Dec 18:18:02 18:21:51 21° 94° (E) 18:25:38 437.568
HO-68 09 Dec 18:21:17 18:28:16 59° 69° (ENE) 18:35:18 435.675
CUTE-I 09 Dec 18:23:28 18:27:54 26° 265° (W) 18:32:22 437.470
SO-50 09 Dec 18:26:50 18:31:25 48° 117° (ESE) 18:35:58 436.795
SEEDS 09 Dec 18:28:52 18:32:30 30° 71° (ENE) 18:36:10 437.485
COMPASS 1 09 Dec 18:32:00 18:35:10 22° 69° (ENE) 18:38:21 437.405
NOAA 15 09 Dec 18:34:01 18:37:36 19° 267° (W) 18:41:12 137.62
RS-15 09 Dec 18:42:11 18:47:35 14° 265° (W) 18:52:56 29.354- 29.394
CUBEBUG 2 09 Dec 18:45:05 18:49:15 31° 70° (ENE) 18:53:22 437.445
Oscar 11 09 Dec 18:48:56 18:49:45 10° 63° (ENE) 18:50:34 145.826/435.025
Cubesat XI-IV 09 Dec 18:52:34 18:55:30 15° 269° (W) 18:58:27 437.490
CINEMA 3 09 Dec 18:53:46 18:58:38 56° 261° (W) 19:03:36 145.822/145.860
AIST 1 09 Dec 18:56:49 19:01:05 66° 95° (E) 19:05:25
NOAA 18 09 Dec 19:08:05 19:11:37 17° 268° (W) 19:15:11 137.9125
Cosmos 2491 09 Dec 19:13:27 19:20:14 26° 278° (W) 19:27:01 435.465 / 435.565
UWE-3 09 Dec 19:18:36 19:23:01 44° 73° (ENE) 19:27:22 435.000/436.395/437.385
CUSAT 1 09 Dec 19:27:42 19:31:46 61° 81° (E) 19:37:08 437.405
CUTE 1.7 + AOD 2 09 Dec 19:28:38 19:32:28 34° 263° (W) 19:36:18 437.475
AAUSAT CUBESAT 2 09 Dec 19:31:49 19:35:55 85° 75° (ENE) 19:40:03 437.432
ISS 09 Dec 19:36:15 19:38:26 16° 20° (NNE) 19:40:37 145.825
YUBILEINY 09 Dec 19:36:20 19:44:29 43° 285° (WNW) 19:52:45 435.215
PCSat 09 Dec 19:40:30 19:45:57 82° 59° (ENE) 19:51:23 145.827
CANX-2 09 Dec 19:48:38 19:51:33 18° 267° (W) 19:54:28 2200.000
ZACube-1 09 Dec 19:50:16 19:54:44 60° 75° (ENE) 19:59:09 437.345
FUNcube-1 09 Dec 19:55:32 20:00:01 63° 75° (ENE) 20:04:25 145.935
DELFI C3 09 Dec 19:55:45 19:58:31 19° 68° (ENE) 20:01:18 145.870
STRAND 1 09 Dec 19:56:23 20:01:11 42° 289° (WNW) 20:05:57 437.568
Cosmos 2504 09 Dec 20:03:20 20:11:34 56° 282° (WNW) 20:20:17 435.465 / 435.565
SEEDS 09 Dec 20:05:09 20:08:13 20° 266° (W) 20:11:18 437.485
COMPASS 1 09 Dec 20:07:01 20:10:33 27° 264° (W) 20:14:07 437.405
SO-50 09 Dec 20:08:26 20:12:07 22° 314° (NW) 20:15:47 436.795
HO-68 09 Dec 20:10:43 20:16:21 25° 266° (W) 20:22:03 435.675
Oscar 11 09 Dec 20:20:59 20:25:17 70° 259° (W) 20:29:35 145.826/435.025
CUBEBUG 2 09 Dec 20:21:53 20:25:48 26° 265° (W) 20:29:43 437.445
PRISM 09 Dec 20:32:32 20:36:15 31° 97° (E) 20:39:58 437.425
HUMSAT D 09 Dec 20:42:05 20:45:55 35° 72° (ENE) 20:49:42 437.325/437.525
DANDE 09 Dec 20:54:57 20:58:00 51° 262° (W) 21:01:53 436.750
UWE-3 09 Dec 20:56:37 20:59:37 17° 267° (W) 21:02:37 435.000/436.395/437.385
ISS 09 Dec 21:12:02 21:15:22 84° 42° (NE) 21:18:39 145.825
CUSAT 1 09 Dec 21:12:09 21:13:33 11° 268° (W) 21:15:04 437.405
PHONESAT 2.4 09 Dec 21:13:24 21:14:28 12° 148° (SSE) 21:15:31 2401.200-2431.200
TIGRISAT 09 Dec 21:14:20 21:17:25 19° 93° (E) 21:20:27 435.000
ANTELSAT 09 Dec 21:16:43 21:20:04 21° 94° (E) 21:23:20 437.575/2403.000
PCSat 09 Dec 21:26:35 21:28:36 12° 258° (WSW) 21:30:35 145.827
ESTCUBE 1 09 Dec 21:28:28 21:31:26 18° 66° (ENE) 21:34:25 437.505/2401.250
ZACube-1 09 Dec 21:29:37 21:31:20 12° 269° (W) 21:33:03 437.345
DELFI C3 09 Dec 21:29:42 21:33:07 29° 263° (W) 21:36:34 145.870
CUBEBUG 1 09 Dec 21:33:33 21:35:05 12° 63° (ENE) 21:36:37 437.445
FUNcube-1 09 Dec 21:35:13 21:36:35 11° 270° (W) 21:37:57 145.935
VELOX 1 09 Dec 21:54:35 21:56:48 14° 64° (ENE) 21:59:01 145.980
PRISM 09 Dec 22:08:15 22:11:20 20° 293° (WNW) 22:14:25 437.425
QB50P2 09 Dec 22:17:12 22:17:21 10° 90° (E) 22:17:30 145.880/145.840
HUMSAT D 09 Dec 22:18:48 22:21:36 17° 267° (W) 22:24:24 437.325/437.525
UNISAT 6 09 Dec 22:21:18 22:25:38 67° 285° (WNW) 22:29:53 437.425
GONETS M04 09 Dec 22:22:21 22:26:48 15° 77° (ENE) 22:31:15
DUCHIFAT 1 09 Dec 22:26:45 22:27:15 10° 90° (E) 22:27:45 145.980
QB50P1 09 Dec 22:27:30 22:29:30 13° 92° (E) 22:31:30 145.935-145.965
JAS-2 09 Dec 22:28:17 22:32:41 26° 96° (E) 22:37:19 435.910
PHONESAT 2.4 09 Dec 22:46:38 22:49:16 59° 162° (SSE) 22:51:53 2401.200-2431.200
POPSAT HIP 1 09 Dec 22:48:19 22:51:40 22° 95° (E) 22:55:00 437.405
TIGRISAT 09 Dec 22:50:16 22:54:12 34° 289° (WNW) 22:58:04 435.000
Cosmos 2499 09 Dec 22:51:21 22:58:28 30° 83° (E) 23:05:46 435.465 / 435.565
AISAT 09 Dec 22:51:46 22:56:07 60° 74° (ENE) 23:00:31 437.250
ANTELSAT 09 Dec 22:52:59 22:56:47 30° 290° (WNW) 23:00:31 437.575/2403.000
50 SAT 09 Dec 22:54:26 22:57:47 44° 74° (ENE) 23:01:09 437.505
ESTCUBE 1 09 Dec 23:03:40 23:07:54 42° 261° (W) 23:12:10 437.505/2401.250
BUGSAT 1 09 Dec 23:05:59 23:06:46 10° 90° (E) 23:07:33 437.445
CUBEBUG 1 09 Dec 23:06:26 23:10:46 65° 258° (WSW) 23:15:09 437.445
UKube-1 09 Dec 23:26:01 23:30:12 52° 73° (ENE) 23:34:25 .
DX 1 09 Dec 23:27:17 23:31:37 75° 75° (ENE) 23:35:59 434.975-435.025
VELOX 1 09 Dec 23:28:26 23:32:45 55° 259° (W) 23:37:08 145.980
SPROUT 09 Dec 23:29:28 23:33:47 84° 258° (WSW) 23:38:08 437.525
NANOSAT C BR1 09 Dec 23:39:09 23:43:24 86° 106° (ESE) 23:47:35 145.865
QB50P2 09 Dec 23:49:21 23:53:32 61° 285° (WNW) 23:57:41 145.880/145.840
POLYITAN 1 09 Dec 23:49:44 23:53:56 65° 285° (WNW) 23:58:05 437.675
DUCHIFAT 1 09 Dec 23:59:10 00:03:18 60° 286° (WNW) 00:07:25 145.980
QB50P1 10 Dec 00:01:27 00:05:31 47° 287° (WNW) 00:09:33 145.935-145.965
AO-85 10 Dec 00:10:09 00:14:48 41° 116° (ESE) 00:19:09 145.980
JAS-2 10 Dec 00:13:07 00:17:51 35° 290° (WNW) 00:22:50 435.910
GONETS M04 10 Dec 00:13:31 00:22:14 86° 95° (E) 00:30:58
PHONESAT 2.4 10 Dec 00:21:50 00:24:27 60° 358° (N) 00:27:05 2401.200-2431.200
POPSAT HIP 1 10 Dec 00:23:48 00:27:24 28° 291° (WNW) 00:31:00 437.405
AISAT 10 Dec 00:31:27 00:32:57 11° 269° (W) 00:34:27 437.250
TISAT 1 10 Dec 00:35:52 00:40:07 86° 78° (ENE) 00:44:24 437.305
Oscar 19 10 Dec 00:37:28 00:41:58 29° 96° (E) 00:46:27 437.125/150
BUGSAT 1 10 Dec 00:38:24 00:42:30 57° 286° (WNW) 00:46:30 437.445
Cosmos 2499 10 Dec 00:42:30 00:50:59 59° 282° (WNW) 00:59:47 435.465 / 435.565
O/OREOS (USA 219) 10 Dec 00:51:51 00:56:21 81° 69° (ENE) 01:00:49 437.305
AUBIESAT-1 10 Dec 00:52:18 00:55:55 28° 63° (ENE) 00:59:45 437.475
SWISSCUBE 10 Dec 00:58:09 01:02:22 33° 69° (ENE) 01:06:37 437.505
BEESAT 10 Dec 01:01:44 01:05:56 32° 69° (ENE) 01:10:09 436.000
UKube-1 10 Dec 01:04:40 01:06:31 13° 268° (W) 01:08:24 .
M-CUBED/EXP-1 PRIME 10 Dec 01:07:47 01:11:50 50° 68° (ENE) 01:16:12 437.505
Gurwin Techsat 1B 10 Dec 01:08:20 01:12:57 29° 96° (E) 01:17:31 435.225
MOZHAYETS 4 10 Dec 01:30:50 01:33:19 15° 64° (ENE) 01:35:50
ITUPSAT 1 10 Dec 01:31:46 01:36:29 64° 74° (ENE) 01:41:13 437.325
AO-85 10 Dec 01:51:22 01:55:20 25° 310° (NW) 01:59:05 145.980
PHONESAT 2.4 10 Dec 01:57:03 01:59:41 79° 196° (SSW) 02:02:19 2401.200-2431.200
GONETS M04 10 Dec 02:14:23 02:20:10 19° 296° (WNW) 02:25:59
Oscar 19 10 Dec 02:16:39 02:21:14 32° 292° (WNW) 02:25:49 437.125/150
AUBIESAT-1 10 Dec 02:26:41 02:30:14 26° 260° (W) 02:34:00 437.475
AO-7 10 Dec 02:33:47 02:40:55 30° 96° (E) 02:47:58 29.400- 29.500
SWISSCUBE 10 Dec 02:36:18 02:40:10 24° 264° (W) 02:44:03 437.505
BEESAT 10 Dec 02:39:48 02:43:42 25° 264° (W) 02:47:39 436.000
Cosmos 2499 10 Dec 02:44:09 02:46:13 11° 304° (WNW) 02:48:17 435.465 / 435.565
M-CUBED/EXP-1 PRIME 10 Dec 02:44:19 02:46:38 14° 265° (W) 02:49:01 437.505
Gurwin Techsat 1B 10 Dec 02:48:08 02:52:51 33° 292° (WNW) 02:57:34 435.225
ITAMSAT 1 10 Dec 02:54:13 02:59:22 65° 102° (ESE) 03:04:30 435.822/435.867
STARS 10 Dec 02:57:46 03:01:17 23° 67° (ENE) 03:04:48 437.465
SO-50 10 Dec 02:59:29 03:03:32 31° 50° (NE) 03:07:31 436.795
KKS-1 10 Dec 03:03:16 03:07:39 59° 73° (ENE) 03:12:04 437.445
MOZHAYETS 4 10 Dec 03:05:32 03:10:01 54° 260° (W) 03:14:31
ITUPSAT 1 10 Dec 03:12:46 03:14:44 12° 269° (W) 03:16:41 437.325
CUBESAT XI-V 10 Dec 03:20:48 03:24:45 29° 69° (ENE) 03:28:44 437.345
PHONESAT 2.4 10 Dec 03:32:48 03:34:35 16° 210° (SSW) 03:36:21 2401.200-2431.200
BEESAT 3 10 Dec 03:35:38 03:39:30 80° 120° (ESE) 03:43:28 437.485
BRITE-PL 10 Dec 03:50:10 03:53:44 17° 91° (E) 03:57:19 437.365/2234.400
YUBILEINY 10 Dec 03:52:13 03:57:50 18° 63° (ENE) 04:03:26 435.215
HORYU 2 10 Dec 04:11:06 04:13:18 13° 92° (E) 04:15:29 437.375
BEESAT 2 10 Dec 04:14:27 04:18:23 86° 301° (WNW) 04:22:23 435.950
Cosmos 2491 10 Dec 04:24:57 04:28:09 12° 75° (ENE) 04:31:21 435.465 / 435.565
AO-7 10 Dec 04:25:51 04:34:01 59° 294° (WNW) 04:42:08 29.400- 29.500
STARS 10 Dec 04:33:34 04:37:27 30° 263° (W) 04:41:23 437.465
ITAMSAT 1 10 Dec 04:35:17 04:38:16 16° 298° (WNW) 04:41:14 435.822/435.867
RS-15 10 Dec 04:38:22 04:46:19 22° 98° (E) 04:54:28 29.354- 29.394
SO-50 10 Dec 04:40:06 04:43:53 27° 247° (WSW) 04:47:37 436.795
GOMX 1 10 Dec 04:40:40 04:44:50 22° 92° (E) 04:48:55 467.674
KKS-1 10 Dec 04:42:49 04:44:34 12° 269° (W) 04:46:18 437.445
CUBESAT XI-V 10 Dec 04:58:19 05:02:05 25° 265° (W) 05:05:53 437.345
CUTE-I 10 Dec 05:02:13 05:05:23 16° 92° (E) 05:08:30 437.470
AIST 1 10 Dec 05:06:10 05:08:48 15° 71° (ENE) 05:11:23
NOAA 15 10 Dec 05:09:30 05:13:24 21° 94° (E) 05:17:18 137.62
BEESAT 3 10 Dec 05:16:23 05:17:40 11° 318° (NW) 05:18:57 437.485
BRITE-PL 10 Dec 05:27:01 05:32:30 64° 286° (WNW) 05:38:08 437.365/2234.400
Cubesat XI-IV 10 Dec 05:28:35 05:33:09 28° 96° (E) 05:37:40 437.490
STRAND 1 10 Dec 05:32:41 05:36:59 28° 67° (ENE) 05:41:18 437.568
AIST 2 10 Dec 05:45:20 05:48:16 19° 111° (ESE) 05:51:14 435.215
HORYU 2 10 Dec 05:45:50 05:50:08 51° 287° (WNW) 05:54:23 437.375
YUBILEINY 10 Dec 05:47:01 05:55:54 89° 83° (E) 06:04:46 435.215
LilacSat-2 10 Dec 05:48:25 05:52:05 48° 99° (E) 05:55:43 437.200
NOAA 18 10 Dec 05:48:54 05:53:34 27° 96° (E) 05:58:10 137.9125
BEESAT 2 10 Dec 05:56:33 05:56:49 10° 319° (NW) 05:57:05 435.950
Cosmos 2504 10 Dec 05:57:39 06:06:11 55° 77° (ENE) 06:14:08 435.465 / 435.565
DOVE 4 10 Dec 06:04:55 06:10:07 58° 99° (E) 06:15:04 437.250
Cosmos 2491 10 Dec 06:14:39 06:23:22 75° 94° (E) 06:32:06 435.465 / 435.565
GOMX 1 10 Dec 06:17:48 06:23:05 48° 288° (WNW) 06:28:17 467.674
AO-7 10 Dec 06:21:49 06:25:00 13° 314° (NW) 06:28:13 29.400- 29.500
CUTE-I 10 Dec 06:40:34 06:45:48 60° 287° (WNW) 06:51:01 437.470
AIST 1 10 Dec 06:42:26 06:46:36 43° 268° (W) 06:50:44
RS-15 10 Dec 06:45:12 06:56:57 88° 122° (ESE) 07:09:19 29.354- 29.394
NOAA 15 10 Dec 06:48:20 06:53:22 46° 289° (WNW) 06:58:24 137.62
CINEMA 3 10 Dec 06:50:08 06:54:33 39° 97° (E) 06:58:44 145.822/145.860
Cubesat XI-IV 10 Dec 07:08:25 07:13:12 34° 292° (WNW) 07:17:57 437.490
STRAND 1 10 Dec 07:11:24 07:16:01 33° 263° (W) 07:20:39 437.568
CUTE 1.7 + AOD 2 10 Dec 07:14:09 07:18:09 40° 98° (E) 07:22:08 437.475
AAUSAT CUBESAT 2 10 Dec 07:16:28 07:18:43 14° 92° (E) 07:20:58 437.432
PRISM 10 Dec 07:21:20 07:24:17 20° 67° (ENE) 07:27:15 437.425
AIST 2 10 Dec 07:22:40 07:26:28 36° 307° (NW) 07:30:20 435.215
LilacSat-2 10 Dec 07:24:50 07:25:55 11° 295° (WNW) 07:27:00 437.200
NOAA 18 10 Dec 07:29:11 07:34:15 38° 292° (WNW) 07:39:17 137.9125
CANX-2 10 Dec 07:32:59 07:37:14 82° 102° (ESE) 07:41:28 2200.000
HO-68 10 Dec 07:37:31 07:44:43 69° 103° (ESE) 07:51:53 435.675
ZACube-1 10 Dec 07:42:09 07:43:29 11° 90° (E) 07:44:48 437.345
DOVE 4 10 Dec 07:43:51 07:47:14 18° 297° (WNW) 07:50:33 437.250
YUBILEINY 10 Dec 07:46:17 07:51:24 17° 283° (WNW) 07:56:32 435.215
FUNcube-1 10 Dec 07:46:53 07:48:26 12° 91° (E) 07:49:58 145.935
SEEDS 10 Dec 07:48:34 07:52:46 70° 101° (E) 07:56:57 437.485
COMPASS 1 10 Dec 07:50:03 07:54:05 46° 99° (E) 07:58:07 437.405
Cosmos 2504 10 Dec 07:51:49 07:59:00 30° 277° (W) 08:05:50 435.465 / 435.565
Oscar 11 10 Dec 08:09:51 08:13:15 22° 95° (E) 08:16:38 145.826/435.025
TIGRISAT 10 Dec 08:12:04 08:15:04 17° 66° (ENE) 08:18:02 435.000
CUBEBUG 2 10 Dec 08:13:09 08:17:29 77° 100° (E) 08:21:40 437.445
ANTELSAT 10 Dec 08:14:29 08:17:45 19° 66° (ENE) 08:21:00 437.575/2403.000
Cosmos 2491 10 Dec 08:14:34 08:21:04 23° 294° (WNW) 08:27:37 435.465 / 435.565
DANDE 10 Dec 08:23:24 08:24:30 11° 94° (E) 08:25:32 436.750
CINEMA 3 10 Dec 08:27:57 08:31:20 20° 294° (WNW) 08:34:37 145.822/145.860
CUSAT 1 10 Dec 08:31:12 08:34:08 62° 98° (E) 08:36:45 437.405
PCSat 10 Dec 08:41:50 08:43:30 11° 102° (ESE) 08:45:12 145.827
AO-85 10 Dec 08:43:18 08:46:27 22° 48° (NE) 08:49:30 145.980
JAS-2 10 Dec 08:43:35 08:45:01 11° 60° (ENE) 08:46:25 435.910
